Погода в Камышном

Россия / Курганская область     54°49′13″N   62°17′50″E
темп.,
°C
ветер,
м/с
пор.,
м/с
влажн.,
%
обл.,
%
осадки,
мм/ч
давл.,
гПа
погр.,
м
28 января, чт
чт2823:00−6юз488787 0.0 1030111
02:00−6юз5108866 0.0 1030154
05:00−6юз5128664 0.0 1030247
08:00−6ююз7138584 0.0 1029276
11:00−7юз7148692 0.0 1029313
14:00−6ююз81484100 0.0 1028351
17:00−7ююз8148697 0.0 1027330
20:00−7юз71486100 0.0 1028313
29 января, пт
пт2923:00−9юз61284100 0.0 1027265
02:00−10юз51186100 0.0 1027253
05:00−10ююз51186100 0.0 1027230
08:00−11ююз51186100 0.0 1027208
11:00−10ююз61185100 0.0 1027236
14:00−9ююз61086100 0.0 1026252
17:00−10ююз51188100 0.0 1026214
20:00−12ю41091100 0.0 1025147
30 января, сб
сб3023:00−13ю51091100 0.0 1025169
02:00−13ю51091100 0.0 1024196
05:00−11ю5109299 0.0 1022241
08:00−10ююв51092100 0.0 1020266
11:00−8ю61191100 0.0 1018390
14:00−6ю51092100 0.0 1017459
17:00−6ю51093100 0.1 1016450
20:00−7ю4995100 0.1 1016213
31 января, вс
вс3123:00−9ююз349698 0.3 101680
02:00−11юз34943 0.0 101740
05:00−12юз23901 0.0 101821
08:00−10ююз2387100 0.0 101825
11:00−8юз2390100 0.0 101957
14:00−5з229091 0.0 101962
17:00−7з118587 0.0 102021
20:00−8ююз11860 0.0 102221
1 февраля, пн
пн123:00−7ю228644 0.0 102221
02:00−9ю338749 0.0 102221
05:00−10ю448845 0.0 102262
08:00−10ю479263 0.0 1021108
11:00−8ююз5109139 0.0 1021256
14:00−6ююз7138831 0.0 1020434
17:00−6ююз6119365 0.1 1020312
20:00−5юз51293100 0.3 1021313